Weather History for 71799 - September, 2012

Change the Weather History Date:

Saturday, September 22, 2012

  Actual Average Record
Temperature  
Mean Temperature 57 °F -  
Max Temperature 66 °F 59 °F - ()
Min Temperature 48 °F 43 °F - ()
Degree Days  
Heating Degree Days 8    
Growing Degree Days 7 (Base 50)    
Moisture  
Dew Point 48 °F    
Average Humidity 72    
Maximum Humidity 94    
Minimum Humidity 41    
Precipitation  
Precipitation 0.00 in 0.08 in - ()
Sea Level Pressure  
Sea Level Pressure 30.15 in    
Wind  
Wind Speed 1 mph ()    
Max Wind Speed 9 mph    
Max Gust Speed -    
Visibility 20.0 miles    
Events      
T = Trace of Precipitation, MM = Missing Value Source: Averaged Metar Reports

Daily Weather History Graph

Daily Weather History Graph

Search for Another Location

Airport or City:

Trip Planner

Search our weather history database for the weather conditions in past years. The results will help you decide how hot, cold, wet, or windy it might be!

Date:

Astronomy

Sep. 22, 2012 Rise Set
Actual Time 7:01 AM PDT 7:10 PM PDT
Civil Twilight 6:29 AM PDT 7:41 PM PDT
Nautical Twilight 5:52 AM PDT 8:18 PM PDT
Astronomical Twilight 5:14 AM PDT 8:56 PM PDT
Moon 2:53 PM PDT (9/22) 11:52 PM PDT (9/22)
Length of Visible Light 13h 11m
Length of Day
12h 09m
Waxing Crescent, 50% of the Moon is Illuminated
Sep 22
Waxing Crescent
Sep 22
First Quarter
Sep 29
Full
Oct 8
Last Quarter
Oct 15
New

Hourly Weather History & Observations

Time (PDT) Temp. Dew Point Humidity Pressure Visibility Wind Dir Wind Speed Gust Speed Precip Events Conditions
12:00 AM 55.4 °F 50.0 °F 82% 30.14 in 30.0 mi Calm Calm - N/A   Overcast
1:00 AM 55.4 °F 50.0 °F 82% 30.14 in 30.0 mi Calm Calm - N/A   Overcast
2:00 AM 55.4 °F 50.0 °F 82% 30.15 in 30.0 mi Calm Calm - N/A   Overcast
3:00 AM 55.4 °F 50.0 °F 82% 30.15 in 30.0 mi Calm Calm - N/A   Overcast
4:00 AM 55.4 °F 50.0 °F 82% 30.15 in 30.0 mi Calm Calm - N/A   Overcast
5:00 AM 55 °F 50 °F 79% 30.15 in 28 mi ESE 2.3 mph - -   Mostly Cloudy
5:00 AM 55.4 °F 50.0 °F 82% 30.15 in 30.0 mi Calm Calm - N/A   Mostly Cloudy
6:00 AM 53.6 °F 50.0 °F 88% 30.14 in 30.0 mi Calm Calm - N/A   Mostly Cloudy
7:00 AM 53.6 °F 50.0 °F 88% 30.15 in 20.0 mi Calm Calm - N/A   Mostly Cloudy
8:00 AM 50.0 °F 48.2 °F 94% 30.15 in 20.0 mi Calm Calm - N/A   Mostly Cloudy
9:00 AM 53.6 °F 50.0 °F 88% 30.16 in 20.0 mi Calm Calm - N/A   Mostly Cloudy
10:00 AM 59.0 °F 51.8 °F 77% 30.16 in 30.0 mi Calm Calm - N/A   Mostly Cloudy
11:00 AM 62 °F 49 °F 51% 30.16 in 28 mi Calm Calm - -   Mostly Cloudy
11:00 AM 62.6 °F 48.2 °F 59% 30.16 in 30.0 mi Calm Calm - N/A   Mostly Cloudy
12:00 PM 64.4 °F 50.0 °F 59% 30.15 in 30.0 mi ENE 8.1 mph - N/A   Scattered Clouds
1:00 PM 64.4 °F 46.4 °F 52% 30.15 in 30.0 mi ENE 9.2 mph - N/A   Scattered Clouds
2:00 PM 64.4 °F 48.2 °F 56% 30.14 in 30.0 mi ESE 6.9 mph - N/A   Mostly Cloudy
3:00 PM 64.4 °F 46.4 °F 52% 30.14 in 30.0 mi ESE 5.8 mph - N/A   Mostly Cloudy
4:00 PM 66.2 °F 48.2 °F 52% 30.14 in 30.0 mi ESE 6.9 mph - N/A   Mostly Cloudy
5:00 PM 65 °F 47 °F 41% 30.14 in 28 mi SE 6.9 mph - -   Scattered Clouds
5:00 PM 64.4 °F 46.4 °F 52% 30.14 in 30.0 mi SE 6.9 mph - N/A   Mostly Cloudy
6:00 PM 62.6 °F 46.4 °F 55% 30.13 in 30.0 mi ESE 4.6 mph - N/A   Mostly Cloudy
7:00 PM 55.4 °F 48.2 °F 77% 30.13 in 30.0 mi East 4.6 mph - N/A   Mostly Cloudy
8:00 PM 53.6 °F 46.4 °F 77% 30.14 in 30.0 mi Calm Calm - N/A   Mostly Cloudy
10:00 PM 48.2 °F 42.8 °F 82% 30.14 in 30.0 mi Calm Calm - N/A   Mostly Cloudy
11:00 PM 49 °F 44 °F 76% 30.14 in 28 mi Calm Calm - -   Scattered Clouds
11:00 PM 48.2 °F 44.6 °F 87% 30.14 in 30.0 mi Calm Calm - N/A   Mostly Cloudy